• In Russia
  • List of Countries
  • For 7 days
  • Water Temperature
  • Satellite Maps
  • Weather Map
  • Weather Widgets
  • user-avatar
    Login

    Hourly Weather La Rioja

    Today, 12 December, Tuesday

    Time Temperature Precipitation Wind Pressure Humidity
    00:00 +28°C° 0 mm 2 mps 712 mmHg 44%
    01:00 +28°C° 0 mm 2 mps 712 mmHg 45%
    02:00 +27°C° 0 mm 1 mps 712 mmHg 47%
    03:00 +27°C° 0 mm 2 mps 711 mmHg 48%
    04:00 +26°C° 0 mm 2 mps 711 mmHg 49%
    05:00 +26°C° 0 mm 2 mps 711 mmHg 50%
    06:00 +27°C° 0 mm 2 mps 711 mmHg 46%
    07:00 +28°C° 0 mm 2 mps 712 mmHg 43%
    08:00 +29°C° 0 mm 2 mps 712 mmHg 39%
    09:00 +31°C° 0 mm 2 mps 712 mmHg 36%
    10:00 +32°C° 0 mm 2 mps 711 mmHg 33%
    11:00 +35°C° 0 mm 2 mps 711 mmHg 29%
    12:00 +36°C° 0 mm 3 mps 711 mmHg 27%
    13:00 +37°C° 0 mm 3 mps 710 mmHg 25%
    14:00 +40°C° 0 mm 4 mps 710 mmHg 23%
    15:00 +40°C° 0.1 mm 4 mps 709 mmHg 23%
    16:00 +40°C° 0.1 mm 5 mps 709 mmHg 22%
    17:00 +41°C° 0.1 mm 5 mps 708 mmHg 22%
    18:00 +39°C° 0 mm 5 mps 708 mmHg 24%
    19:00 +37°C° 0 mm 4 mps 709 mmHg 27%
    20:00 +35°C° 0 mm 4 mps 709 mmHg 30%
    21:00 +34°C° 0 mm 3 mps 709 mmHg 33%
    22:00 +33°C° 0 mm 3 mps 710 mmHg 35%
    23:00 +31°C° 0 mm 2 mps 710 mmHg 38%

    Tomorrow, 13 December, Wednesday

    Time Temperature Precipitation Wind Pressure Humidity
    00:00 +31°C° 0 mm 2 mps 710 mmHg 39%
    01:00 +30°C° 0 mm 2 mps 710 mmHg 40%
    02:00 +30°C° 0 mm 2 mps 709 mmHg 41%
    03:00 +29°C° 0 mm 2 mps 709 mmHg 41%
    04:00 +29°C° 0 mm 2 mps 710 mmHg 42%
    05:00 +28°C° 0 mm 2 mps 710 mmHg 43%
    06:00 +30°C° 0 mm 3 mps 711 mmHg 38%
    07:00 +32°C° 0 mm 4 mps 711 mmHg 34%
    08:00 +33°C° 0 mm 4 mps 712 mmHg 29%
    09:00 +34°C° 0 mm 5 mps 712 mmHg 28%
    10:00 +36°C° 0 mm 6 mps 712 mmHg 27%
    11:00 +38°C° 0 mm 7 mps 713 mmHg 25%
    12:00 +39°C° 0 mm 7 mps 712 mmHg 25%
    13:00 +39°C° 0 mm 7 mps 712 mmHg 25%
    14:00 +40°C° 0 mm 6 mps 711 mmHg 25%
    15:00 +40°C° 0 mm 6 mps 711 mmHg 24%
    16:00 +40°C° 0 mm 6 mps 711 mmHg 23%
    17:00 +40°C° 0 mm 6 mps 711 mmHg 23%
    18:00 +39°C° 0 mm 5 mps 712 mmHg 24%
    19:00 +37°C° 0 mm 5 mps 713 mmHg 26%
    20:00 +36°C° 0 mm 4 mps 713 mmHg 27%
    21:00 +35°C° 0 mm 4 mps 714 mmHg 29%
    22:00 +34°C° 0 mm 4 mps 715 mmHg 30%
    23:00 +33°C° 0 mm 3 mps 716 mmHg 32%

    Day after tomorrow, 14 December, Thursday

    Time Temperature Precipitation Wind Pressure Humidity
    00:00 +33°C° 0 mm 3 mps 715 mmHg 34%
    01:00 +31°C° 0 mm 3 mps 715 mmHg 36%
    02:00 +30°C° 0 mm 3 mps 715 mmHg 38%
    03:00 +29°C° 0 mm 3 mps 715 mmHg 41%
    04:00 +29°C° 0 mm 3 mps 715 mmHg 44%
    05:00 +28°C° 0 mm 3 mps 716 mmHg 47%
    06:00 +28°C° 0 mm 3 mps 716 mmHg 48%
    07:00 +29°C° 0 mm 3 mps 716 mmHg 48%
    08:00 +29°C° 0 mm 2 mps 717 mmHg 48%
    09:00 +31°C° 0 mm 3 mps 717 mmHg 44%
    10:00 +33°C° 0 mm 3 mps 717 mmHg 40%
    11:00 +35°C° 0 mm 3 mps 717 mmHg 36%
    12:00 +36°C° 0 mm 3 mps 716 mmHg 34%
    13:00 +37°C° 0 mm 3 mps 715 mmHg 32%
    14:00 +38°C° 0 mm 4 mps 715 mmHg 29%
    15:00 +38°C° 0 mm 4 mps 714 mmHg 29%
    16:00 +40°C° 0 mm 4 mps 714 mmHg 28%
    17:00 +40°C° 0 mm 4 mps 713 mmHg 27%
    18:00 +38°C° 0 mm 4 mps 714 mmHg 29%
    19:00 +37°C° 0 mm 4 mps 714 mmHg 32%
    20:00 +35°C° 0 mm 4 mps 714 mmHg 34%
    21:00 +35°C° 0 mm 3 mps 715 mmHg 37%
    22:00 +34°C° 0 mm 2 mps 715 mmHg 40%
    23:00 +32°C° 0 mm 2 mps 715 mmHg 43%

    15 December, Friday

    Time Temperature Precipitation Wind Pressure Humidity
    00:00 +31°C° 0 mm 2 mps 715 mmHg 45%
    01:00 +31°C° 0 mm 1 mps 714 mmHg 47%
    02:00 +30°C° 0 mm 1 mps 714 mmHg 49%
    03:00 +30°C° 0 mm 1 mps 714 mmHg 50%
    04:00 +29°C° 0 mm 1 mps 714 mmHg 51%
    05:00 +29°C° 0 mm 1 mps 714 mmHg 52%
    06:00 +30°C° 0 mm 1 mps 714 mmHg 48%
    07:00 +31°C° 0 mm 1 mps 714 mmHg 44%
    08:00 +33°C° 0 mm 1 mps 714 mmHg 40%
    09:00 +35°C° 0 mm 2 mps 714 mmHg 37%
    10:00 +36°C° 0 mm 2 mps 713 mmHg 33%
    11:00 +38°C° 0 mm 2 mps 713 mmHg 30%
    12:00 +39°C° 0.1 mm 3 mps 712 mmHg 28%
    13:00 +40°C° 0.1 mm 3 mps 711 mmHg 26%
    14:00 +42°C° 0.1 mm 3 mps 710 mmHg 24%
    15:00 +42°C° 0.1 mm 4 mps 709 mmHg 23%
    16:00 +43°C° 0.1 mm 4 mps 709 mmHg 23%
    17:00 +43°C° 0.1 mm 4 mps 708 mmHg 22%
    18:00 +42°C° 0.1 mm 4 mps 708 mmHg 25%
    19:00 +39°C° 0.1 mm 3 mps 708 mmHg 28%
    20:00 +38°C° 0.1 mm 3 mps 708 mmHg 30%
    21:00 +37°C° 0 mm 3 mps 709 mmHg 31%
    22:00 +36°C° 0 mm 3 mps 709 mmHg 31%
    23:00 +35°C° 0 mm 3 mps 709 mmHg 32%

    16 December, Saturday

    Time Temperature Precipitation Wind Pressure Humidity
    00:00 +35°C° 0 mm 3 mps 708 mmHg 32%
    01:00 +34°C° 0 mm 3 mps 708 mmHg 32%
    02:00 +34°C° 0 mm 2 mps 707 mmHg 32%
    03:00 +32°C° 0 mm 2 mps 707 mmHg 33%
    04:00 +32°C° 0 mm 2 mps 707 mmHg 34%
    05:00 +31°C° 0 mm 2 mps 707 mmHg 35%
    06:00 +34°C° 0 mm 2 mps 707 mmHg 32%
    07:00 +35°C° 0 mm 1 mps 707 mmHg 28%
    08:00 +36°C° 0 mm 1 mps 708 mmHg 24%
    09:00 +39°C° 0 mm 1 mps 707 mmHg 22%
    10:00 +40°C° 0 mm 2 mps 707 mmHg 20%
    11:00 +41°C° 0 mm 2 mps 707 mmHg 19%
    12:00 +42°C° 0 mm 2 mps 706 mmHg 18%
    13:00 +43°C° 0 mm 2 mps 705 mmHg 17%
    14:00 +45°C° 0 mm 3 mps 705 mmHg 16%
    15:00 +46°C° 0 mm 3 mps 704 mmHg 15%
    16:00 +46°C° 0 mm 3 mps 704 mmHg 15%
    17:00 +46°C° 0 mm 3 mps 704 mmHg 15%
    18:00 +44°C° 0 mm 3 mps 704 mmHg 17%
    19:00 +43°C° 0 mm 3 mps 705 mmHg 20%
    20:00 +40°C° 0 mm 3 mps 706 mmHg 22%
    21:00 +39°C° 0 mm 3 mps 706 mmHg 24%
    22:00 +38°C° 0 mm 3 mps 707 mmHg 25%
    23:00 +37°C° 0 mm 3 mps 707 mmHg 27%

    17 December, Sunday

    Time Temperature Precipitation Wind Pressure Humidity
    00:00 +36°C° 0.2 mm 3 mps 708 mmHg 28%
    01:00 +36°C° 0.2 mm 4 mps 708 mmHg 28%
    02:00 +35°C° 0.2 mm 4 mps 708 mmHg 28%
    03:00 +33°C° 0.7 mm 5 mps 710 mmHg 40%
    04:00 +30°C° 0.7 mm 5 mps 712 mmHg 52%
    05:00 +28°C° 0.7 mm 6 mps 713 mmHg 63%
    06:00 +27°C° 1.2 mm 5 mps 715 mmHg 65%
    07:00 +27°C° 1.2 mm 5 mps 716 mmHg 67%
    08:00 +26°C° 1.2 mm 4 mps 718 mmHg 68%
    09:00 +26°C° 0.9 mm 3 mps 718 mmHg 68%
    10:00 +25°C° 0.9 mm 3 mps 718 mmHg 67%
    11:00 +25°C° 0.9 mm 2 mps 718 mmHg 67%
    12:00 +26°C° 0.4 mm 3 mps 717 mmHg 64%
    13:00 +26°C° 0.4 mm 3 mps 717 mmHg 61%
    14:00 +27°C° 0.4 mm 3 mps 716 mmHg 58%
    15:00 +28°C° 0.2 mm 3 mps 716 mmHg 55%
    16:00 +29°C° 0.2 mm 4 mps 716 mmHg 51%
    17:00 +30°C° 0.2 mm 4 mps 715 mmHg 48%
    18:00 +29°C° 0.1 mm 3 mps 715 mmHg 50%
    19:00 +29°C° 0.1 mm 3 mps 716 mmHg 52%
    20:00 +28°C° 0.1 mm 2 mps 716 mmHg 54%
    21:00 +28°C° 0.1 mm 2 mps 716 mmHg 55%
    22:00 +27°C° 0.1 mm 2 mps 717 mmHg 56%
    23:00 +27°C° 0.1 mm 2 mps 717 mmHg 57%
    Show more